�������C�����ː����j�^�v���󋵏��
Date,Time,Cs137(Bq/L),Cs134(Bq/L),�S��(Bq/L)
2020/04/02,00:00,0.30,ND,20
2020/04/02,00:10,0.31,ND,22
2020/04/02,00:20,0.31,ND,21
2020/04/02,00:30,0.32,ND,23
2020/04/02,00:40,0.32,ND,22
2020/04/02,00:50,0.33,ND,24
2020/04/02,01:00,0.32,ND,25
2020/04/02,01:10,0.32,ND,22
2020/04/02,01:20,0.33,ND,24
2020/04/02,01:30,0.33,ND,20
2020/04/02,01:40,0.34,ND,19
2020/04/02,01:50,0.35,ND,16
2020/04/02,02:00,0.36,ND,14
2020/04/02,02:10,0.36,ND,16
2020/04/02,02:20,0.36,ND,15
2020/04/02,02:30,0.35,ND,18
2020/04/02,02:40,0.34,ND,17
2020/04/02,02:50,0.33,ND,20
2020/04/02,03:00,0.30,ND,23
2020/04/02,03:10,0.28,ND,21
2020/04/02,03:20,0.32,ND,21
2020/04/02,03:30,0.33,ND,20
2020/04/02,03:40,0.32,ND,20
2020/04/02,03:50,0.30,ND,19
2020/04/02,04:00,0.28,ND,14
2020/04/02,04:10,0.30,ND,15
2020/04/02,04:20,0.29,ND,16
2020/04/02,04:30,0.28,ND,18
2020/04/02,04:40,0.27,ND,19
2020/04/02,04:50,0.30,ND,20
2020/04/02,05:00,0.31,ND,19
2020/04/02,05:10,0.31,ND,18
2020/04/02,05:20,0.30,ND,14
2020/04/02,05:30,0.30,ND,15
2020/04/02,05:40,0.32,ND,14
2020/04/02,05:50,0.30,ND,12
2020/04/02,06:00,0.30,ND,16
2020/04/02,06:10,0.30,ND,17
2020/04/02,06:20,0.29,ND,22
2020/04/02,06:30,0.30,ND,22
2020/04/02,06:40,0.29,ND,22
2020/04/02,06:50,0.32,ND,23
2020/04/02,07:00,0.32,ND,23
2020/04/02,07:10,0.31,ND,22
2020/04/02,07:20,0.34,ND,20
2020/04/02,07:30,0.35,ND,19
2020/04/02,07:40,0.35,ND,19
2020/04/02,07:50,0.34,ND,19
2020/04/02,08:00,0.35,ND,16
2020/04/02,08:10,0.36,ND,14
2020/04/02,08:20,0.35,ND,16
2020/04/02,08:30,0.34,ND,15
2020/04/02,08:40,0.35,ND,12
2020/04/02,08:50,0.35,ND,13
2020/04/02,09:00,0.37,ND,16
2020/04/02,09:10,0.39,ND,17
2020/04/02,09:20,0.39,ND,17
2020/04/02,09:30,0.41,ND,17
2020/04/02,09:40,0.41,ND,18
2020/04/02,09:50,0.41,ND,18
2020/04/02,10:00,0.41,ND,16
2020/04/02,10:10,0.39,ND,17
2020/04/02,10:20,0.38,ND,17
2020/04/02,10:30,0.39,ND,18
2020/04/02,10:40,0.38,ND,21
2020/04/02,10:50,0.38,ND,20
2020/04/02,11:00,0.36,ND,21
2020/04/02,11:10,0.38,ND,20
2020/04/02,11:20,0.39,ND,21
2020/04/02,11:30,0.37,ND,21
2020/04/02,11:40,0.38,ND,18
2020/04/02,11:50,0.36,ND,18
2020/04/02,12:00,0.37,ND,18
2020/04/02,12:10,0.38,ND,21
2020/04/02,12:20,0.38,ND,18
2020/04/02,12:30,0.38,ND,17
2020/04/02,12:40,0.38,ND,20
2020/04/02,12:50,0.38,ND,21
2020/04/02,13:00,0.38,ND,21
2020/04/02,13:10,0.34,ND,18
2020/04/02,13:20,0.35,ND,19
2020/04/02,13:30,0.36,ND,20
2020/04/02,13:40,0.36,ND,20
2020/04/02,13:50,0.37,ND,22
2020/04/02,14:00,0.36,ND,22
2020/04/02,14:10,0.36,ND,22
2020/04/02,14:20,0.34,ND,22
2020/04/02,14:30,0.33,ND,20
2020/04/02,14:40,0.33,ND,16
2020/04/02,14:50,0.32,ND,15
2020/04/02,15:00,0.31,ND,14
2020/04/02,15:10,0.32,ND,14
2020/04/02,15:20,0.32,ND,17
2020/04/02,15:30,0.32,ND,21
2020/04/02,15:40,0.31,ND,23
2020/04/02,15:50,0.31,ND,22
2020/04/02,16:00,0.31,ND,24
2020/04/02,16:10,0.30,ND,24
2020/04/02,16:20,0.29,ND,20
2020/04/02,16:30,0.26,ND,17
2020/04/02,16:40,0.26,ND,14
2020/04/02,16:50,0.26,ND,12
2020/04/02,17:00,0.26,ND,11
2020/04/02,17:10,0.25,ND,12
2020/04/02,17:20,0.28,ND,15
2020/04/02,17:30,0.29,ND,14
2020/04/02,17:40,0.29,ND,16
2020/04/02,17:50,0.32,ND,19
2020/04/02,18:00,0.32,ND,20
2020/04/02,18:10,0.33,ND,20
2020/04/02,18:20,0.31,ND,20
2020/04/02,18:30,0.30,ND,23
2020/04/02,18:40,0.30,ND,24
2020/04/02,18:50,0.30,ND,23
2020/04/02,19:00,0.30,ND,22
2020/04/02,19:10,0.29,ND,22
2020/04/02,19:20,0.32,ND,21
2020/04/02,19:30,0.33,ND,16
2020/04/02,19:40,0.33,ND,17
2020/04/02,19:50,0.33,ND,17
2020/04/02,20:00,0.34,ND,21
2020/04/02,20:10,0.34,ND,20
2020/04/02,20:20,0.34,ND,19
2020/04/02,20:30,0.33,ND,22
2020/04/02,20:40,0.33,ND,22
2020/04/02,20:50,0.31,ND,23
2020/04/02,21:00,0.32,ND,19
2020/04/02,21:10,0.31,ND,21
2020/04/02,21:20,0.31,ND,22
2020/04/02,21:30,0.32,ND,18
2020/04/02,21:40,0.31,ND,20
2020/04/02,21:50,0.30,ND,19
2020/04/02,22:00,0.27,ND,18
2020/04/02,22:10,0.26,ND,15
2020/04/02,22:20,0.25,ND,16
2020/04/02,22:30,0.24,ND,18
2020/04/02,22:40,0.24,ND,18
2020/04/02,22:50,0.27,ND,17
2020/04/02,23:00,0.28,ND,17
2020/04/02,23:10,0.28,ND,17
2020/04/02,23:20,0.28,ND,17
2020/04/02,23:30,0.29,ND,18
2020/04/02,23:40,0.27,ND,17
2020/04/02,23:50,0.26,ND,18
